Dewpoint
38 35 33 33 34 32 31 29 28 30 30 31 31 31 31 32 32 33 33 35 35 39 40 42 46 47 49 52 52 54 56 58 57 60 63 64 64 65 65 66 67 67 66 66
35 35 34 34 33 32 32 31 30 30 30 31 30 29 31 32 32 32 30 35 36 38 37 40 43 47 49 50 51 50 51 54 53 52 55 61 62 64 65 65 65 66 66 66
34 34 35 33 33 32 32 31 31 30 31 31 31 30 31 31 30 30 32 35 37 37 36 37 40 45 46 48 49 46 48 51 53 54 53 55 57 61 62 61 61 63 63 64
35 35 34 33 32 32 31 32 32 31 30 28 31 25 25 28 29 30 34 36 37 36 35 34 38 41 46 48 50 48 47 47 49 53 52 53 53 52 53 54 56 58 60 61
34 34 34 34 33 32 31 33 32 32 32 32 29 26 25 27 28 30 34 36 37 35 36 36 37 38 40 47 49 50 49 48 48 50 52 52 51 52 53 53 54 55 56 56
35 35 34 34 34 34 33 32 32 33 32 28 28 26 23 23 28 31 33 35 36 37 37 36 38 40 41 47 47 47 45 43 47 49 49 51 52 52 51 52 53 53 53 54
35 35 35 34 32 34 32 32 30 28 27 25 25 24 26 27 28 32 34 34 37 38 39 41 35 33 37 41 44 44 44 43 45 46 48 50 51 52 52 52 51 51 52 53
34 33 34 34 32 31 32 32 35 27 25 25 26 23 26 30 31 33 34 35 37 38 36 33 32 34 35 39 41 43 42 41 42 45 47 50 51 51 51 51 51 52 52 53
34 33 34 34 33 31 31 30 32 31 31 30 27 29 31 31 32 33 33 35 34 31 31 31 33 35 36 37 37 43 43 41 43 45 48 49 49 49 49 52 52 51 53 52
36 34 33 33 32 31 31 31 30 30 28 25 24 26 26 32 32 33 32 30 30 29 29 28 29 33 33 34 35 41 42 39 41 45 46 44 48 50 51 52 50 51 51 51
37 33 31 31 30 31 31 30 30 31 36 31 23 23 32 34 34 29 28 29 30 27 26 26 28 31 31 34 34 35 36 37 37 36 41 43 47 46 46 49 48 48 48 48
37 32 30 28 30 31 29 30 32 34 33 35 34 25 33 36 33 31 30 28 25 23 24 24 27 29 29 30 30 29 33 35 36 37 38 41 43 43 43 44 45 49 48 50
36 33 32 28 28 29 28 29 31 34 41 33 34 27 32 33 31 30 29 23 20 19 18 20 23 25 27 28 28 26 28 27 30 29 31 36 39 38 38 39 41 41 41 38
39 33 33 30 27 28 28 27 28 31 33 31 30 27 28 29 29 28 21 19 17 17 13 16 19 21 25 24 25 24 26 29 27 26 28 31 34 36 38 37 37 39 39 39
39 35 32 31 29 30 30 27 27 27 30 32 30 28 28 28 26 19 15 11 9 10 10 10 13 17 18 19 22 23 24 25 27 26 27 29 34 36 35 37 38 38 39 36
40 37 36 35 32 31 33 26 25 27 26 26 28 29 29 26 21 13 8 7 9 9 7 8 10 14 17 21 23 25 26 28 28 28 27 27 29 29 32 34 36 35 39 37
38 36 34 34 34 33 27 26 23 23 27 27 26 28 25 22 18 9 9 10 8 8 8 13 18 22 25 27 27 27 28 30 30 30 29 29 30 29 29 29 30 33 35 35
36 35 35 33 33 25 25 20 25 24 22 23 23 23 23 16 6 7 7 7 8 16 19 20 22 24 26 27 28 29 28 29 30 30 30 31 32 33 34 35 34 38 39 39
39 36 33 29 27 25 21 14 17 20 23 26 25 23 19 6 9 8 7 18 20 20 19 20 21 24 26 26 28 29 30 31 31 31 31 33 34 35 37 36 39 41 41 42
39 37 32 31 27 23 22 19 16 14 17 17 18 13 7 7 8 6 19 22 21 16 14 16 19 23 25 27 29 30 30 31 31 33 34 34 35 36 38 40 40 41 41 41
32 32 30 29 27 25 17 10 9 11 15 18 11 13 15 12 12 18 23 23 17 14 15 17 19 22 25 29 29 30 30 32 34 35 36 37 37 37 39 39 39 40 40 39
29 29 28 30 27 23 12 10 12 23 22 18 18 19 19 18 21 22 21 16 14 15 15 17 22 25 27 28 30 30 31 34 34 36 37 36 38 37 38 38 38 38 37 37
26 31 27 27 24 23 18 20 24 25 22 19 19 16 20 21 22 18 15 15 14 15 16 20 23 26 28 29 30 31 34 35 36 35 36 36 37 38 37 37 37 36 36 35
25 28 30 26 22 20 22 21 21 16 16 15 19 22 23 20 16 15 15 14 15 16 20 23 26 26 28 29 30 32 35 36 36 35 35 35 35 36 37 36 35 35 35 34
24 23 22 21 17 18 17 19 19 14 16 20 23 21 17 15 15 15 15 15 17 19 22 25 26 27 27 29 29 31 34 35 34 34 34 34 34 34 35 35 35 34 34 34
19 21 21 22 22 22 19 23 18 15 20 24 20 16 15 15 15 15 16 17 19 18 21 24 26 27 27 28 30 32 32 35 34 32 33 34 34 34 34 34 34 35 35 34
Lifted_Index
3 3 3 3 2 2 2 1 1 0 -0 0 1 2 1 1 1 1 2 4 5 6 6 7 7 7 7 6 6 5 5 4 3 2 0 -1 -1 -2 -2 -3 -3 -3 -2 -2
3 3 3 3 2 2 2 1 1 1 0 1 1 2 1 1 1 2 2 4 5 6 7 7 7 8 7 7 7 6 6 5 4 4 2 1 0 -1 -2 -2 -2 -2 -2 -2
3 2 2 2 2 2 2 1 1 1 1 1 1 2 2 2 2 3 3 4 5 6 7 8 8 8 8 8 7 7 7 6 6 5 4 4 2 1 -0 -0 -0 -1 -1 -1
2 2 2 2 2 2 1 1 1 1 1 1 1 2 2 2 3 3 4 4 5 6 7 8 8 8 8 8 8 8 8 7 7 6 5 5 4 3 2 2 2 1 0 0
2 2 2 2 2 2 2 2 2 2 2 2 2 2 2 2 3 4 5 6 6 7 8 8 8 9 9 9 9 8 8 8 7 7 6 5 5 4 4 4 3 3 2 2
3 2 2 2 2 2 2 2 2 2 2 2 2 2 2 2 3 5 6 7 7 7 8 8 8 9 9 9 9 9 9 9 8 8 7 6 5 5 5 4 4 3 3 3
3 3 2 2 2 2 2 2 2 1 1 1 2 2 2 2 3 5 6 7 7 7 7 8 8 9 10 10 10 10 10 9 9 8 8 7 6 5 4 4 4 3 3 3
3 2 2 3 2 2 2 2 1 1 1 1 1 2 2 3 4 5 6 7 7 8 8 9 10 11 11 11 11 11 11 10 10 9 8 6 5 4 4 4 3 3 3 3
2 2 2 2 2 2 2 2 2 1 1 1 1 2 3 4 4 5 6 7 8 9 10 11 11 12 12 12 12 12 11 11 10 9 7 6 5 5 4 4 4 4 4 4
2 2 2 2 2 2 2 3 3 2 1 1 1 2 2 4 4 5 6 8 9 10 12 13 13 13 13 13 13 12 12 11 10 9 8 7 6 6 5 5 5 5 5 5
2 2 2 3 3 3 2 3 3 3 2 2 1 2 2 3 5 6 7 8 10 11 13 13 13 13 13 13 13 13 12 11 10 9 9 8 8 7 7 7 7 7 6 6
2 2 3 3 3 3 3 3 3 3 3 2 2 2 3 3 4 6 7 9 11 13 14 14 13 13 13 13 13 12 11 11 10 10 10 9 9 9 9 8 8 7 6 5
3 3 3 3 3 3 3 3 3 3 3 3 3 3 3 4 4 6 8 10 12 13 14 13 13 13 13 13 12 12 11 11 10 11 11 10 9 8 7 7 6 5 4 4
3 3 2 2 2 3 3 4 4 3 3 3 3 3 3 3 4 6 9 11 13 13 13 13 13 13 13 12 12 11 11 11 11 11 10 9 7 6 4 4 3 2 2 2
4 3 2 2 2 3 4 4 5 4 3 3 3 3 2 3 4 7 9 12 13 13 13 13 13 13 12 12 11 11 11 11 10 9 8 6 4 3 2 2 1 1 1 1
4 3 2 2 2 3 3 4 4 4 4 4 3 3 3 3 5 7 10 12 12 12 13 13 12 12 11 11 10 10 10 9 8 7 5 4 3 2 2 2 1 1 0 0
3 3 2 2 2 2 3 4 4 4 4 4 4 4 4 5 7 9 11 12 12 13 12 12 11 11 10 10 10 9 8 7 6 4 3 3 2 2 2 2 1 1 0 -0
3 3 2 2 2 3 4 5 5 4 4 4 5 5 6 8 10 12 12 13 13 12 12 11 11 11 10 10 9 8 6 5 4 3 3 3 2 2 2 1 1 0 -0 -0
4 3 3 2 2 3 5 6 6 5 5 5 6 6 8 10 12 12 13 13 12 12 12 12 11 11 10 10 8 7 5 4 4 4 4 4 3 2 2 1 0 0 -0 -0
5 4 3 3 2 3 5 7 8 7 6 7 8 8 10 11 12 12 12 12 12 12 12 12 12 11 9 8 7 6 5 5 5 5 5 4 4 3 2 2 1 1 1 1
4 4 3 3 2 4 6 9 9 7 7 9 10 11 11 12 12 11 11 11 12 12 12 12 11 9 8 7 6 6 6 6 6 6 5 5 4 3 3 2 2 2 2 2
3 3 3 3 3 5 8 9 9 9 10 11 12 12 12 12 12 11 11 11 12 12 11 10 9 8 7 7 7 7 7 7 7 6 6 5 5 4 4 3 3 2 2 2
4 4 4 4 5 6 8 9 10 11 11 12 13 12 12 12 11 11 11 12 11 10 10 9 8 7 7 8 7 7 7 7 6 6 5 5 5 4 4 3 3 2 2 2
6 6 6 6 7 8 9 10 11 12 12 12 12 12 12 11 12 11 11 11 10 9 8 8 8 7 7 7 7 7 7 7 6 5 4 4 4 3 3 3 2 2 2 2
7 7 7 7 8 9 10 11 12 12 12 12 11 11 12 12 11 11 10 9 8 8 8 8 8 7 7 7 7 7 7 7 6 4 3 3 2 2 2 2 1 2 2 3
8 7 7 7 9 10 10 11 12 12 12 11 11 11 12 11 11 10 9 8 7 8 8 8 8 7 7 7 7 7 7 7 6 4 3 2 2 1 1 1 1 2 3 4